| time (UTC) | temp F | wind direction | speed MPH | gust MPH | rain 1hr in | rain 24hr in | rain mn in | humidity % | barometer mb |
| 20260506113008 | 64 | 189 | 1.0 | 7.0 | 0.00 | 0.00 | 0.00 | 73 | 1009.8 |
| 20260506112503 | 64 | 175 | 0.0 | 5.0 | 0.00 | 0.00 | 0.00 | 74 | 1009.7 |
| 20260506112004 | 64 | 163 | 1.0 | 7.0 | 0.00 | 0.00 | 0.00 | 74 | 1009.6 |
| 20260506111510 | 64 | 197 | 1.0 | 7.0 | 0.00 | 0.00 | 0.00 | 75 | 1009.6 |
| 20260506111004 | 64 | 202 | 0.0 | 4.0 | 0.00 | 0.00 | 0.00 | 75 | 1009.7 |
| 20260506110509 | 63 | 115 | 0.0 | 4.0 | 0.00 | 0.00 | 0.00 | 75 | 1009.6 |
| 20260506110016 | 63 | 233 | 1.0 | 9.0 | 0.00 | 0.00 | 0.00 | 75 | 1009.6 |
| 20260506105506 | 63 | 162 | 1.0 | 9.0 | 0.00 | 0.00 | 0.00 | 75 | 1009.4 |
| 20260506105008 | 63 | 260 | 1.0 | 5.0 | 0.00 | 0.00 | 0.00 | 76 | 1009.4 |
| 20260506104527 | 63 | 152 | 1.0 | 4.0 | 0.00 | 0.00 | 0.00 | 76 | 1009.6 |
| 20260506104007 | 63 | 160 | 1.0 | 4.0 | 0.00 | 0.00 | 0.00 | 76 | 1009.7 |
| 20260506103506 | 63 | 185 | 1.0 | 4.0 | 0.00 | 0.00 | 0.00 | 76 | 1009.7 |
| 20260506103005 | 63 | 152 | 0.0 | 4.0 | 0.00 | 0.00 | 0.00 | 76 | 1009.5 |
| 20260506102503 | 62 | 215 | 1.0 | 4.0 | 0.00 | 0.00 | 0.00 | 76 | 1009.5 |
| 20260506102003 | 62 | 168 | 0.0 | 4.0 | 0.00 | 0.00 | 0.00 | 76 | 1009.5 |
| 20260506101508 | 62 | 142 | 0.0 | 6.0 | 0.00 | 0.00 | 0.00 | 76 | 1009.4 |
| 20260506101003 | 62 | 155 | 1.0 | 6.0 | 0.00 | 0.00 | 0.00 | 76 | 1009.5 |
| 20260506100504 | 62 | 180 | 0.0 | 3.0 | 0.00 | 0.00 | 0.00 | 76 | 1009.4 |
| 20260506100019 | 62 | 170 | 1.0 | 3.0 | 0.00 | 0.00 | 0.00 | 77 | 1009.3 |
| 20260506095507 | 62 | 193 | 1.0 | 3.0 | 0.00 | 0.00 | 0.00 | 77 | 1009.2 |
| 20260506095008 | 62 | 222 | 1.0 | 5.0 | 0.00 | 0.00 | 0.00 | 77 | 1009.4 |
| 20260506094518 | 62 | 198 | 0.0 | 5.0 | 0.00 | 0.00 | 0.00 | 76 | 1009.4 |
| 20260506094008 | 62 | 143 | 1.0 | 5.0 | 0.00 | 0.00 | 0.00 | 76 | 1009.4 |
| 20260506093507 | 62 | 164 | 1.0 | 3.0 | 0.00 | 0.00 | 0.00 | 76 | 1009.4 |
| 20260506093031 | 62 | 130 | 0.0 | 3.0 | 0.00 | 0.00 | 0.00 | 76 | 1009.5 |
| 20260506092508 | 62 | 206 | 0.0 | 3.0 | 0.00 | 0.00 | 0.00 | 76 | 1009.4 |
| 20260506092007 | 62 | 162 | 1.0 | 3.0 | 0.00 | 0.00 | 0.00 | 76 | 1009.4 |
| 20260506091526 | 62 | 141 | 0.0 | 2.0 | 0.00 | 0.00 | 0.00 | 75 | 1009.5 |
| 20260506091007 | 62 | 141 | 0.0 | 2.0 | 0.00 | 0.00 | 0.00 | 74 | 1009.5 |
| 20260506090506 | 62 | 153 | 0.0 | 2.0 | 0.00 | 0.00 | 0.00 | 74 | 1009.5 |
| 20260506090011 | 62 | 168 | 0.0 | 2.0 | 0.00 | 0.00 | 0.00 | 74 | 1009.5 |
| 20260506085506 | 62 | 269 | 0.0 | 2.0 | 0.00 | 0.00 | 0.00 | 74 | 1009.6 |
| 20260506085006 | 63 | 194 | 0.0 | 2.0 | 0.00 | 0.00 | 0.00 | 74 | 1009.6 |
| 20260506084518 | 63 | 185 | 0.0 | 3.0 | 0.00 | 0.00 | 0.00 | 73 | 1009.6 |
| 20260506084007 | 63 | 134 | 0.0 | 3.0 | 0.00 | 0.00 | 0.00 | 73 | 1009.7 |
| 20260506083508 | 63 | 134 | 1.0 | 3.0 | 0.00 | 0.00 | 0.00 | 73 | 1009.7 |
| 20260506083028 | 63 | 149 | 0.0 | 2.0 | 0.00 | 0.00 | 0.00 | 72 | 1009.7 |
| 20260506082511 | 63 | 185 | 0.0 | 1.0 | 0.00 | 0.00 | 0.00 | 72 | 1009.6 |
| 20260506082009 | 63 | 191 | 0.0 | 2.0 | 0.00 | 0.00 | 0.00 | 71 | 1009.7 |
| 20260506081526 | 63 | 232 | 0.0 | 2.0 | 0.00 | 0.00 | 0.00 | 71 | 1009.8 |
| 20260506081007 | 63 | 175 | 0.0 | 3.0 | 0.00 | 0.00 | 0.00 | 71 | 1009.7 |
| 20260506080507 | 64 | 204 | 0.0 | 3.0 | 0.00 | 0.00 | 0.00 | 71 | 1009.8 |
| 20260506073507 | 64 | 143 | 0.0 | 2.0 | 0.00 | 0.00 | 0.00 | 68 | 1009.9 |
| 20260506073004 | 64 | 180 | 0.0 | 3.0 | 0.00 | 0.00 | 0.00 | 68 | 1009.8 |
| 20260506072503 | 64 | 169 | 0.0 | 4.0 | 0.00 | 0.00 | 0.00 | 68 | 1009.8 |
| 20260506072004 | 64 | 162 | 1.0 | 4.0 | 0.00 | 0.00 | 0.00 | 67 | 1009.8 |
| 20260506071504 | 65 | 154 | 0.0 | 2.0 | 0.00 | 0.00 | 0.00 | 67 | 1009.8 |
| 20260506071003 | 65 | 129 | 0.0 | 2.0 | 0.00 | 0.00 | 0.00 | 66 | 1009.9 |
| 20260506070504 | 65 | 172 | 0.0 | 2.0 | 0.00 | 0.00 | 0.00 | 66 | 1009.9 |
| 20260506062506 | 65 | 185 | 1.0 | 3.0 | 0.00 | 0.00 | 0.00 | 64 | 1009.9 |
| 20260506062002 | 65 | 156 | 0.0 | 2.0 | 0.00 | 0.00 | 0.00 | 64 | 1010.0 |
| 20260506061504 | 66 | 139 | 0.0 | 2.0 | 0.00 | 0.00 | 0.00 | 64 | 1010.0 |
| 20260506061005 | 66 | 165 | 0.0 | 3.0 | 0.00 | 0.00 | 0.00 | 64 | 1010.0 |
| 20260506060502 | 66 | 233 | 0.0 | 3.0 | 0.00 | 0.00 | 0.00 | 63 | 1009.9 |
| 20260506051007 | 67 | 159 | 0.0 | 4.0 | 0.00 | 0.00 | 0.00 | 60 | 1010.5 |
| 20260506050510 | 67 | 171 | 1.0 | 4.0 | 0.00 | 0.00 | 0.00 | 60 | 1010.6 |
| 20260506045003 | 67 | 144 | 1.0 | 6.0 | 0.00 | 0.00 | 0.00 | 60 | 1010.6 |
| 20260506044508 | 67 | 137 | 1.0 | 6.0 | 0.00 | 0.00 | 0.00 | 59 | 1010.6 |
| 20260506044004 | 67 | 224 | 1.0 | 4.0 | 0.00 | 0.00 | 0.00 | 59 | 1010.6 |
| 20260506043505 | 67 | 200 | 1.0 | 4.0 | 0.00 | 0.00 | 0.00 | 59 | 1010.6 |
| 20260506042505 | 68 | 197 | 1.0 | 5.0 | 0.00 | 0.00 | 0.00 | 58 | 1010.6 |
| 20260506042009 | 68 | 240 | 2.0 | 4.0 | 0.00 | 0.00 | 0.00 | 58 | 1010.6 |
| 20260506041514 | 68 | 191 | 1.0 | 5.0 | 0.00 | 0.00 | 0.00 | 58 | 1010.5 |
| 20260506041007 | 68 | 158 | 2.0 | 5.0 | 0.00 | 0.00 | 0.00 | 58 | 1010.5 |
| 20260506040506 | 68 | 211 | 2.0 | 6.0 | 0.00 | 0.00 | 0.00 | 57 | 1010.5 |
| 20260506040022 | 68 | 148 | 1.0 | 8.0 | 0.00 | 0.00 | 0.00 | 57 | 1010.3 |
| 20260506035508 | 68 | 191 | 2.0 | 8.0 | 0.00 | 0.00 | 0.00 | 57 | 1010.3 |
| 20260506035011 | 68 | 214 | 1.0 | 4.0 | 0.00 | 0.00 | 0.00 | 57 | 1010.3 |
| 20260506034505 | 69 | 229 | 1.0 | 4.0 | 0.00 | 0.00 | 0.00 | 56 | 1010.4 |
| 20260506034004 | 69 | 158 | 1.0 | 5.0 | 0.00 | 0.00 | 0.00 | 56 | 1010.4 |
| 20260506033507 | 69 | 171 | 2.0 | 5.0 | 0.00 | 0.00 | 0.00 | 55 | 1010.5 |
| 20260506033011 | 69 | 175 | 2.0 | 6.0 | 0.00 | 0.00 | 0.00 | 55 | 1010.5 |
| 20260506032504 | 70 | 126 | 2.0 | 6.0 | 0.00 | 0.00 | 0.00 | 54 | 1010.4 |
| 20260506032005 | 70 | 175 | 1.0 | 5.0 | 0.00 | 0.00 | 0.00 | 53 | 1010.4 |
| 20260506031523 | 70 | 163 | 2.0 | 5.0 | 0.00 | 0.00 | 0.00 | 53 | 1010.3 |
| 20260506031008 | 70 | 175 | 1.0 | 8.0 | 0.00 | 0.00 | 0.00 | 52 | 1010.3 |
| 20260506030506 | 70 | 164 | 2.0 | 8.0 | 0.00 | 0.00 | 0.00 | 52 | 1010.3 |
| 20260506030021 | 71 | 175 | 1.0 | 4.0 | 0.00 | 0.00 | 0.00 | 52 | 1010.2 |
| 20260506025507 | 71 | 223 | 1.0 | 8.0 | 0.00 | 0.00 | 0.00 | 51 | 1010.2 |
| 20260506025010 | 71 | 197 | 3.0 | 8.0 | 0.00 | 0.00 | 0.00 | 50 | 1010.2 |
| 20260506024529 | 71 | 135 | 1.0 | 8.0 | 0.00 | 0.00 | 0.00 | 50 | 1010.1 |
| 20260506024008 | 71 | 166 | 1.0 | 4.0 | 0.00 | 0.00 | 0.00 | 49 | 1010.2 |
| 20260506023508 | 72 | 163 | 1.0 | 8.0 | 0.00 | 0.00 | 0.00 | 48 | 1010.1 |
| 20260506023026 | 72 | 175 | 1.0 | 8.0 | 0.00 | 0.00 | 0.00 | 48 | 1010.1 |
| 20260506022507 | 72 | 106 | 2.0 | 8.0 | 0.00 | 0.00 | 0.00 | 47 | 1010.1 |
| 20260506022006 | 72 | 163 | 2.0 | 6.0 | 0.00 | 0.00 | 0.00 | 46 | 1010.0 |
| 20260506021512 | 72 | 185 | 2.0 | 9.0 | 0.00 | 0.00 | 0.00 | 46 | 1010.0 |
| 20260506021003 | 73 | 151 | 2.0 | 10.0 | 0.00 | 0.00 | 0.00 | 45 | 1010.0 |
| 20260506020504 | 73 | 206 | 3.0 | 10.0 | 0.00 | 0.00 | 0.00 | 44 | 1010.0 |
| 20260506020017 | 73 | 234 | 1.0 | 8.0 | 0.00 | 0.00 | 0.00 | 44 | 1009.9 |
| 20260506015504 | 73 | 175 | 2.0 | 8.0 | 0.00 | 0.00 | 0.00 | 43 | 1009.9 |
| 20260506015009 | 73 | 171 | 2.0 | 5.0 | 0.00 | 0.00 | 0.00 | 43 | 1009.9 |
| 20260506014523 | 73 | 153 | 2.0 | 6.0 | 0.00 | 0.00 | 0.00 | 43 | 1009.9 |
| 20260506014006 | 73 | 228 | 2.0 | 6.0 | 0.00 | 0.00 | 0.00 | 42 | 1009.8 |
| 20260506013508 | 74 | 172 | 2.0 | 7.0 | 0.00 | 0.00 | 0.00 | 42 | 1009.7 |
| 20260506013024 | 74 | 189 | 3.0 | 7.0 | 0.00 | 0.00 | 0.00 | 42 | 1009.7 |
| 20260506012510 | 74 | 206 | 0.0 | 6.0 | 0.00 | 0.00 | 0.00 | 42 | 1009.6 |
| 20260506012012 | 74 | 167 | 1.0 | 6.0 | 0.00 | 0.00 | 0.00 | 42 | 1009.5 |
| 20260506011526 | 74 | 185 | 1.0 | 7.0 | 0.00 | 0.00 | 0.00 | 41 | 1009.5 |
| 20260506011006 | 74 | 133 | 1.0 | 7.0 | 0.00 | 0.00 | 0.00 | 41 | 1009.7 |
| 20260506010506 | 74 | 185 | 1.0 | 4.0 | 0.00 | 0.00 | 0.00 | 40 | 1009.5 |
| 20260506010040 | 75 | 196 | 1.0 | 6.0 | 0.00 | 0.00 | 0.00 | 40 | 1009.5 |
| 20260506005506 | 75 | 175 | 1.0 | 6.0 | 0.00 | 0.00 | 0.00 | 39 | 1009.4 |
| 20260506005007 | 75 | 164 | 1.0 | 5.0 | 0.00 | 0.00 | 0.00 | 39 | 1009.5 |
| 20260506004517 | 75 | 147 | 1.0 | 5.0 | 0.00 | 0.00 | 0.00 | 38 | 1009.4 |
| 20260506004006 | 75 | 159 | 2.0 | 5.0 | 0.00 | 0.00 | 0.00 | 37 | 1009.4 |
| 20260506003507 | 75 | 151 | 1.0 | 5.0 | 0.00 | 0.00 | 0.00 | 37 | 1009.4 |
| 20260506003023 | 75 | 321 | 1.0 | 6.0 | 0.00 | 0.00 | 0.00 | 37 | 1009.2 |
| 20260506002509 | 76 | 233 | 2.0 | 6.0 | 0.00 | 0.00 | 0.00 | 36 | 1009.2 |
| 20260506002009 | 76 | 202 | 1.0 | 5.0 | 0.00 | 0.00 | 0.00 | 35 | 1009.0 |
| 20260506001530 | 76 | 162 | 1.0 | 5.0 | 0.00 | 0.00 | 0.00 | 36 | 1008.9 |
| 20260506001009 | 76 | 149 | 1.0 | 3.0 | 0.00 | 0.00 | 0.00 | 36 | 1008.9 |
| 20260506000508 | 76 | 160 | 1.0 | 5.0 | 0.00 | 0.00 | 0.00 | 35 | 1008.9 |
| 20260506000029 | 76 | 249 | 1.0 | 5.0 | 0.00 | 0.00 | 0.00 | 35 | 1008.8 |
| 20260505235508 | 77 | 175 | 0.0 | 9.0 | 0.00 | 0.00 | 0.00 | 34 | 1008.7 |
| 20260505235008 | 77 | 220 | 2.0 | 9.0 | 0.00 | 0.00 | 0.00 | 34 | 1008.7 |
| 20260505234514 | 77 | 214 | 2.0 | 9.0 | 0.00 | 0.00 | 0.00 | 34 | 1008.7 |
| 20260505234006 | 77 | 175 | 1.0 | 4.0 | 0.00 | 0.00 | 0.00 | 34 | 1008.8 |
| 20260505233508 | 77 | 217 | 1.0 | 4.0 | 0.00 | 0.00 | 0.00 | 33 | 1008.7 |
| 20260505233008 | 77 | 158 | 1.0 | 7.0 | 0.00 | 0.00 | 0.00 | 33 | 1008.7 |
| 20260505232506 | 78 | 149 | 0.0 | 7.0 | 0.00 | 0.00 | 0.00 | 33 | 1008.7 |
| 20260505232003 | 78 | 233 | 2.0 | 7.0 | 0.00 | 0.00 | 0.00 | 32 | 1008.6 |
| 20260505231510 | 78 | 246 | 2.0 | 5.0 | 0.00 | 0.00 | 0.00 | 32 | 1008.3 |
| 20260505231004 | 78 | 157 | 2.0 | 10.0 | 0.00 | 0.00 | 0.00 | 32 | 1008.3 |
| 20260505230504 | 78 | 133 | 3.0 | 10.0 | 0.00 | 0.00 | 0.00 | 32 | 1008.5 |
| 20260505230006 | 78 | 148 | 2.0 | 9.0 | 0.00 | 0.00 | 0.00 | 30 | 1008.3 |
| 20260505225505 | 79 | 158 | 2.0 | 7.0 | 0.00 | 0.00 | 0.00 | 31 | 1008.2 |
| 20260505225002 | 79 | 157 | 1.0 | 8.0 | 0.00 | 0.00 | 0.00 | 31 | 1008.3 |
| 20260505224503 | 79 | 185 | 3.0 | 8.0 | 0.00 | 0.00 | 0.00 | 31 | 1008.1 |
| 20260505224003 | 79 | 166 | 2.0 | 8.0 | 0.00 | 0.00 | 0.00 | 30 | 1008.0 |
| 20260505223502 | 79 | 158 | 2.0 | 8.0 | 0.00 | 0.00 | 0.00 | 30 | 1007.9 |
| 20260505223004 | 79 | 150 | 1.0 | 9.0 | 0.00 | 0.00 | 0.00 | 30 | 1007.9 |
| 20260505222502 | 80 | 258 | 2.0 | 9.0 | 0.00 | 0.00 | 0.00 | 30 | 1008.0 |
| 20260505222003 | 80 | 110 | 1.0 | 8.0 | 0.00 | 0.00 | 0.00 | 30 | 1007.8 |
| 20260505221506 | 80 | 133 | 2.0 | 10.0 | 0.00 | 0.00 | 0.00 | 30 | 1007.9 |
| 20260505221004 | 80 | 215 | 2.0 | 10.0 | 0.00 | 0.00 | 0.00 | 29 | 1007.9 |
| 20260505220504 | 80 | 228 | 2.0 | 6.0 | 0.00 | 0.00 | 0.00 | 29 | 1007.7 |
| 20260505220004 | 81 | 151 | 2.0 | 6.0 | 0.00 | 0.00 | 0.00 | 28 | 1007.8 |
| 20260505215504 | 81 | 116 | 1.0 | 9.0 | 0.00 | 0.00 | 0.00 | 29 | 1007.7 |
| 20260505215004 | 80 | 167 | 3.0 | 9.0 | 0.00 | 0.00 | 0.00 | 28 | 1007.9 |
| 20260505214512 | 80 | 62 | 2.0 | 8.0 | 0.00 | 0.00 | 0.00 | 30 | 1007.9 |
| 20260505214003 | 80 | 155 | 1.0 | 10.0 | 0.00 | 0.00 | 0.00 | 30 | 1007.7 |
| 20260505213506 | 80 | 230 | 1.0 | 10.0 | 0.00 | 0.00 | 0.00 | 30 | 1007.7 |
| 20260505213008 | 80 | 162 | 3.0 | 9.0 | 0.00 | 0.00 | 0.00 | 29 | 1007.4 |
| 20260505212502 | 80 | 158 | 2.0 | 10.0 | 0.00 | 0.00 | 0.00 | 30 | 1007.4 |
| 20260505212002 | 81 | 218 | 2.0 | 10.0 | 0.00 | 0.00 | 0.00 | 30 | 1007.4 |
| 20260505211503 | 81 | 266 | 2.0 | 10.0 | 0.00 | 0.00 | 0.00 | 30 | 1007.2 |
| 20260505211003 | 81 | 175 | 3.0 | 10.0 | 0.00 | 0.00 | 0.00 | 31 | 1007.3 |
| 20260505210503 | 81 | 237 | 3.0 | 10.0 | 0.00 | 0.00 | 0.00 | 30 | 1007.3 |
| 20260505210005 | 82 | 205 | 2.0 | 8.0 | 0.00 | 0.00 | 0.00 | 30 | 1007.2 |
| 20260505205503 | 81 | 195 | 2.0 | 9.0 | 0.00 | 0.00 | 0.00 | 30 | 1007.2 |
| 20260505205002 | 81 | 242 | 3.0 | 9.0 | 0.00 | 0.00 | 0.00 | 31 | 1007.1 |
| 20260505204509 | 80 | 175 | 4.0 | 13.0 | 0.00 | 0.00 | 0.00 | 30 | 1007.3 |
| 20260505204006 | 80 | 248 | 3.0 | 13.0 | 0.00 | 0.00 | 0.00 | 30 | 1007.3 |
| 20260505203502 | 82 | 221 | 5.0 | 13.0 | 0.00 | 0.00 | 0.00 | 29 | 1007.2 |
| 20260505203025 | 82 | 194 | 3.0 | 11.0 | 0.00 | 0.00 | 0.00 | 29 | 1007.2 |
| 20260505202506 | 82 | 175 | 3.0 | 9.0 | 0.00 | 0.00 | 0.00 | 30 | 1007.4 |
| 20260505202008 | 82 | 143 | 4.0 | 10.0 | 0.00 | 0.00 | 0.00 | 30 | 1007.5 |
| 20260505201504 | 82 | 156 | 4.0 | 10.0 | 0.00 | 0.00 | 0.00 | 30 | 1007.7 |
| 20260505201002 | 83 | 136 | 1.0 | 9.0 | 0.00 | 0.00 | 0.00 | 30 | 1007.6 |
| 20260505200502 | 83 | 207 | 2.0 | 9.0 | 0.00 | 0.00 | 0.00 | 29 | 1007.5 |
| 20260505200004 | 83 | 262 | 2.0 | 10.0 | 0.00 | 0.00 | 0.00 | 30 | 1007.5 |
| 20260505195503 | 84 | 228 | 2.0 | 10.0 | 0.00 | 0.00 | 0.00 | 30 | 1007.3 |
| 20260505195003 | 84 | 201 | 1.0 | 10.0 | 0.00 | 0.00 | 0.00 | 30 | 1007.7 |
| 20260505194504 | 83 | 233 | 3.0 | 10.0 | 0.00 | 0.00 | 0.00 | 30 | 1007.5 |
| 20260505194003 | 83 | 197 | 3.0 | 11.0 | 0.00 | 0.00 | 0.00 | 30 | 1007.7 |
| 20260505193503 | 82 | 145 | 3.0 | 11.0 | 0.00 | 0.00 | 0.00 | 30 | 1007.7 |
| 20260505193012 | 83 | 185 | 4.0 | 11.0 | 0.00 | 0.00 | 0.00 | 30 | 1007.7 |
| 20260505192505 | 83 | 143 | 3.0 | 11.0 | 0.00 | 0.00 | 0.00 | 30 | 1007.9 |
| 20260505192007 | 83 | 204 | 3.0 | 12.0 | 0.00 | 0.00 | 0.00 | 29 | 1008.0 |
| 20260505191518 | 83 | 161 | 3.0 | 12.0 | 0.00 | 0.00 | 0.00 | 30 | 1008.0 |
| 20260505191003 | 83 | 198 | 2.0 | 11.0 | 0.00 | 0.00 | 0.00 | 31 | 1007.7 |
| 20260505190509 | 82 | 145 | 3.0 | 11.0 | 0.00 | 0.00 | 0.00 | 31 | 1008.2 |
| 20260505190030 | 84 | 164 | 2.0 | 11.0 | 0.00 | 0.00 | 0.00 | 31 | 1008.2 |
| 20260505185503 | 83 | 206 | 3.0 | 11.0 | 0.00 | 0.00 | 0.00 | 32 | 1008.2 |
| 20260505185005 | 84 | 166 | 4.0 | 10.0 | 0.00 | 0.00 | 0.00 | 31 | 1008.3 |
| 20260505184508 | 84 | 147 | 2.0 | 8.0 | 0.00 | 0.00 | 0.00 | 32 | 1008.4 |
| 20260505184004 | 85 | 189 | 2.0 | 8.0 | 0.00 | 0.00 | 0.00 | 32 | 1008.7 |
| 20260505183503 | 84 | 245 | 1.0 | 7.0 | 0.00 | 0.00 | 0.00 | 35 | 1008.7 |
| 20260505183008 | 84 | 155 | 3.0 | 7.0 | 0.00 | 0.00 | 0.00 | 32 | 1008.7 |
| 20260505182503 | 83 | 158 | 2.0 | 6.0 | 0.00 | 0.00 | 0.00 | 34 | 1008.8 |
| 20260505182003 | 83 | 180 | 2.0 | 9.0 | 0.00 | 0.00 | 0.00 | 33 | 1008.8 |
| 20260505181514 | 83 | 185 | 3.0 | 12.0 | 0.00 | 0.00 | 0.00 | 34 | 1008.9 |
| 20260505181003 | 83 | 171 | 3.0 | 12.0 | 0.00 | 0.00 | 0.00 | 34 | 1008.9 |
| 20260505180506 | 83 | 139 | 2.0 | 5.0 | 0.00 | 0.00 | 0.00 | 34 | 1009.0 |
| 20260505180018 | 83 | 242 | 1.0 | 13.0 | 0.00 | 0.00 | 0.00 | 37 | 1009.0 |
| 20260505175504 | 82 | 124 | 3.0 | 13.0 | 0.00 | 0.00 | 0.00 | 35 | 1009.1 |
| 20260505175014 | 81 | 168 | 4.0 | 10.0 | 0.00 | 0.00 | 0.00 | 35 | 1009.0 |
| 20260505174522 | 82 | 190 | 2.0 | 13.0 | 0.00 | 0.00 | 0.00 | 37 | 1009.2 |
| 20260505174003 | 81 | 175 | 1.0 | 13.0 | 0.00 | 0.00 | 0.00 | 37 | 1009.0 |
| 20260505173503 | 82 | 185 | 2.0 | 6.0 | 0.00 | 0.00 | 0.00 | 37 | 1009.1 |
| 20260505173008 | 82 | 155 | 1.0 | 6.0 | 0.00 | 0.00 | 0.00 | 38 | 1009.2 |
| 20260505172504 | 83 | 224 | 2.0 | 8.0 | 0.00 | 0.00 | 0.00 | 36 | 1009.2 |
| 20260505172003 | 82 | 197 | 3.0 | 8.0 | 0.00 | 0.00 | 0.00 | 37 | 1009.4 |
| 20260505171511 | 81 | 260 | 1.0 | 8.0 | 0.00 | 0.00 | 0.00 | 39 | 1009.5 |
| 20260505171005 | 82 | 148 | 3.0 | 8.0 | 0.00 | 0.00 | 0.00 | 37 | 1009.6 |
| 20260505170506 | 82 | 198 | 1.0 | 8.0 | 0.00 | 0.00 | 0.00 | 38 | 1009.5 |
| 20260505170020 | 81 | 148 | 2.0 | 8.0 | 0.00 | 0.00 | 0.00 | 39 | 1009.6 |
| 20260505165506 | 80 | 151 | 2.0 | 8.0 | 0.00 | 0.00 | 0.00 | 40 | 1009.7 |
| 20260505165006 | 80 | 156 | 2.0 | 8.0 | 0.00 | 0.00 | 0.00 | 43 | 1009.7 |
| 20260505164520 | 79 | 175 | 2.0 | 9.0 | 0.00 | 0.00 | 0.00 | 40 | 1009.8 |
| 20260505164008 | 79 | 167 | 2.0 | 9.0 | 0.00 | 0.00 | 0.00 | 41 | 1009.8 |
| 20260505163509 | 80 | 198 | 2.0 | 9.0 | 0.00 | 0.00 | 0.00 | 39 | 1010.0 |
| 20260505163026 | 79 | 168 | 3.0 | 7.0 | 0.00 | 0.00 | 0.00 | 40 | 1009.9 |
| 20260505162506 | 79 | 171 | 2.0 | 6.0 | 0.00 | 0.00 | 0.00 | 40 | 1010.0 |
| 20260505162005 | 80 | 218 | 3.0 | 6.0 | 0.00 | 0.00 | 0.00 | 38 | 1010.1 |
| 20260505161509 | 80 | 125 | 2.0 | 4.0 | 0.00 | 0.00 | 0.00 | 41 | 1010.2 |
| 20260505161004 | 79 | 185 | 1.0 | 11.0 | 0.00 | 0.00 | 0.00 | 42 | 1010.2 |
| 20260505160510 | 77 | 180 | 2.0 | 11.0 | 0.00 | 0.00 | 0.00 | 42 | 1010.2 |
| 20260505153021 | 75 | 229 | 1.0 | 9.0 | 0.00 | 0.00 | 0.00 | 46 | 1010.7 |
| 20260505152509 | 74 | 161 | 2.0 | 9.0 | 0.00 | 0.00 | 0.00 | 46 | 1010.8 |
| 20260505152009 | 75 | 175 | 3.0 | 6.0 | 0.00 | 0.00 | 0.00 | 46 | 1010.7 |
| 20260505151532 | 76 | 129 | 0.0 | 4.0 | 0.00 | 0.00 | 0.00 | 46 | 1010.7 |
| 20260505151008 | 75 | 105 | 0.0 | 4.0 | 0.00 | 0.00 | 0.00 | 47 | 1010.7 |
| 20260505150507 | 74 | 142 | 1.0 | 6.0 | 0.00 | 0.00 | 0.00 | 47 | 1010.8 |
| 20260505140503 | 71 | 148 | 2.0 | 7.0 | 0.00 | 0.00 | 0.00 | 50 | 1011.2 |
| 20260505125005 | 63 | 142 | 0.0 | 4.0 | 0.00 | 0.00 | 0.00 | 66 | 1011.1 |
| 20260505124512 | 62 | 175 | 1.0 | 4.0 | 0.00 | 0.00 | 0.00 | 69 | 1011.0 |
| 20260505124004 | 61 | 185 | 0.0 | 4.0 | 0.00 | 0.00 | 0.00 | 72 | 1011.1 |
| 20260505123505 | 60 | 166 | 1.0 | 3.0 | 0.00 | 0.00 | 0.00 | 74 | 1011.1 |
| 20260505123015 | 59 | 156 | 0.0 | 3.0 | 0.00 | 0.00 | 0.00 | 76 | 1011.0 |
| 20260505122503 | 59 | 138 | 0.0 | 3.0 | 0.00 | 0.00 | 0.00 | 78 | 1011.1 |
| 20260505122008 | 57 | 156 | 0.0 | 4.0 | 0.00 | 0.00 | 0.00 | 79 | 1011.2 |
| 20260505121526 | 57 | 119 | 1.0 | 4.0 | 0.00 | 0.00 | 0.00 | 80 | 1011.3 |
| 20260505121009 | 56 | 137 | 1.0 | 3.0 | 0.00 | 0.00 | 0.00 | 81 | 1011.4 |
| 20260505120508 | 55 | 134 | 1.0 | 2.0 | 0.00 | 0.00 | 0.00 | 84 | 1011.4 |
| 20260505120052 | 55 | 161 | 0.0 | 2.0 | 0.00 | 0.00 | 0.00 | 85 | 1011.4 |
| 20260505115506 | 54 | 175 | 0.0 | 1.0 | 0.00 | 0.00 | 0.00 | 86 | 1011.4 |
| 20260505115007 | 54 | 175 | 0.0 | 2.0 | 0.00 | 0.00 | 0.00 | 86 | 1011.3 |
| 20260505114510 | 53 | 175 | 0.0 | 2.0 | 0.00 | 0.00 | 0.00 | 85 | 1011.4 |
| 20260505114004 | 53 | 175 | 0.0 | 2.0 | 0.00 | 0.00 | 0.00 | 85 | 1011.3 |
| 20260505113505 | 53 | 254 | 0.0 | 2.0 | 0.00 | 0.00 | 0.00 | 84 | 1011.2 |